Location: Boiro
(42.6475°N, 8.8834°W)
Time: 02:27:37
(UTC+01:00)

Explorer 7 - Pass Details

Date: 03 December 2021
Orbit: 483 x 674 km, 50.3° (Epoch: 23 January)

Event Time Altitude Azimuth Distance (km) Brightness Sun altitude
Rises 11:09:12 0° 296° (WNW) 2,685 9.8 18.0°
Reaches altitude 10° 11:11:43 10° 308° (NW) 1,761 8.9 18.2°
Maximum altitude 11:15:12 28° 9° (N) 966 7.8 18.6°
Drops below altitude 10° 11:18:33 10° 70° (ENE) 1,691 9.5 18.9°
Sets 11:20:54 0° 83° (E) 2,556 10.5 19.1°
